{"data":{"norad_id":58354,"intl_designator":"2023-177D","name":"STARLINK-30832","alt_names":[],"object_type":"PAYLOAD","status":"ACTIVE","operator":null,"country":"US","launch_date":"2023-11-18","launch_site_code":"AFETR","launch_vehicle":null,"mission":null,"orbit_class":"UNKNOWN","rcs_meters":null,"size_class":null,"mass_kg":null,"dimensions":null,"purposes":["comms"],"wikipedia_slug":null,"has_3d_model":false,"image_url":null,"decayed_at":null,"tle_current":{"epoch":"2026-09-20T16:28:57.859392Z","epoch_age_seconds":127555,"freshness":"FRESH","line1":"1 58354U 23177D   26263.68678078  .00000239  00000+0  18189-4 0  9998","line2":"2 58354  43.0013 329.8776 0000676 280.5934  79.4842 15.27577817157995","mean_motion":15.27577817,"eccentricity":6.76e-5,"inclination_deg":43.0013,"raan_deg":329.8776,"arg_perigee_deg":280.5934,"mean_anomaly_deg":79.4842,"bstar":1.8189e-5,"rev_number":15799,"period_min":94.26688342647,"perigee_km":482.59181611279,"apogee_km":483.51944935674,"semimajor_km":6861.1926327348,"source":"CELESTRAK","updated_at":"2026-09-21T09:00:33.841289Z"}}}